Year,Month,Day,Hour,Minute,Value (Times are PST for insolation in W/m^2)
2022,08,13,00,00,0.00
2022,08,13,00,01,0.00
2022,08,13,00,02,0.00
2022,08,13,00,03,0.00
2022,08,13,00,04,0.00
2022,08,13,00,05,0.00
2022,08,13,00,06,0.00
2022,08,13,00,07,0.00
2022,08,13,00,08,0.00
2022,08,13,00,09,0.00
2022,08,13,00,10,0.00
2022,08,13,00,11,0.00
2022,08,13,00,12,0.00
2022,08,13,00,13,0.00
2022,08,13,00,14,0.00
2022,08,13,00,15,0.00
2022,08,13,00,16,0.00
2022,08,13,00,17,0.00
2022,08,13,00,18,0.00
2022,08,13,00,19,0.00
2022,08,13,00,20,0.00
2022,08,13,00,21,0.00
2022,08,13,00,22,0.00
2022,08,13,00,23,0.00
2022,08,13,00,24,0.00
2022,08,13,00,25,0.00
2022,08,13,00,26,0.00
2022,08,13,00,27,0.00
2022,08,13,00,28,0.00
2022,08,13,00,29,0.00
2022,08,13,00,30,0.00
2022,08,13,00,31,0.00
2022,08,13,00,32,0.00
2022,08,13,00,33,0.00
2022,08,13,00,34,0.00
2022,08,13,00,35,0.00
2022,08,13,00,36,0.00
2022,08,13,00,37,0.00
2022,08,13,00,38,0.00
2022,08,13,00,39,0.00
2022,08,13,00,40,0.00
2022,08,13,00,41,0.00
2022,08,13,00,42,0.00
2022,08,13,00,43,0.00
2022,08,13,00,44,0.00
2022,08,13,00,45,0.00
2022,08,13,00,46,0.00
2022,08,13,00,47,0.00
2022,08,13,00,48,0.00
2022,08,13,00,49,0.00
2022,08,13,00,50,0.00
2022,08,13,00,51,0.00
2022,08,13,00,52,0.00
2022,08,13,00,53,0.00
2022,08,13,00,54,0.00
2022,08,13,00,55,0.00
2022,08,13,00,56,0.00
2022,08,13,00,57,0.00
2022,08,13,00,58,0.00
2022,08,13,00,59,0.00
2022,08,13,01,00,0.00
2022,08,13,01,01,0.00
2022,08,13,01,02,0.00
2022,08,13,01,03,0.00
2022,08,13,01,04,0.00
2022,08,13,01,05,0.00
2022,08,13,01,06,0.00
2022,08,13,01,07,0.00
2022,08,13,01,08,0.00
2022,08,13,01,09,0.00
2022,08,13,01,10,0.00
2022,08,13,01,11,0.00
2022,08,13,01,12,0.00
2022,08,13,01,13,0.00
2022,08,13,01,14,0.00
2022,08,13,01,15,0.00
2022,08,13,01,16,0.00
2022,08,13,01,17,0.00
2022,08,13,01,18,0.00
2022,08,13,01,19,0.00
2022,08,13,01,20,0.00
2022,08,13,01,21,0.00
2022,08,13,01,22,0.00
2022,08,13,01,23,0.00
2022,08,13,01,24,0.00
2022,08,13,01,25,0.00
2022,08,13,01,26,0.00
2022,08,13,01,27,0.00
2022,08,13,01,28,0.00
2022,08,13,01,29,0.00
2022,08,13,01,30,0.00
2022,08,13,01,31,0.00
2022,08,13,01,32,0.00
2022,08,13,01,33,0.00
2022,08,13,01,34,0.00
2022,08,13,01,35,0.00
2022,08,13,01,36,0.00
2022,08,13,01,37,0.00
2022,08,13,01,38,0.00
2022,08,13,01,39,0.00
2022,08,13,01,40,0.00
2022,08,13,01,41,0.00
2022,08,13,01,42,0.00
2022,08,13,01,43,0.00
2022,08,13,01,44,0.00
2022,08,13,01,45,0.00
2022,08,13,01,46,0.00
2022,08,13,01,47,0.00
2022,08,13,01,48,0.00
2022,08,13,01,49,0.00
2022,08,13,01,50,0.00
2022,08,13,01,51,0.00
2022,08,13,01,52,0.00
2022,08,13,01,53,0.00
2022,08,13,01,54,0.00
2022,08,13,01,55,0.00
2022,08,13,01,56,0.00
2022,08,13,01,57,0.00
2022,08,13,01,58,0.00
2022,08,13,01,59,0.00
2022,08,13,02,00,0.00
2022,08,13,02,01,0.00
2022,08,13,02,02,0.00
2022,08,13,02,03,0.00
2022,08,13,02,04,0.00
2022,08,13,02,05,0.00
2022,08,13,02,06,0.00
2022,08,13,02,07,0.00
2022,08,13,02,08,0.00
2022,08,13,02,09,0.00
2022,08,13,02,10,0.00
2022,08,13,02,11,0.00
2022,08,13,02,12,0.00
2022,08,13,02,13,0.00
2022,08,13,02,14,0.00
2022,08,13,02,15,0.00
2022,08,13,02,16,0.00
2022,08,13,02,17,0.00
2022,08,13,02,18,0.00
2022,08,13,02,19,0.00
2022,08,13,02,20,0.00
2022,08,13,02,21,0.00
2022,08,13,02,22,0.00
2022,08,13,02,23,0.00
2022,08,13,02,24,0.00
2022,08,13,02,25,0.00
2022,08,13,02,26,0.00
2022,08,13,02,27,0.00
2022,08,13,02,28,0.00
2022,08,13,02,29,0.00
2022,08,13,02,30,0.00
2022,08,13,02,31,0.00
2022,08,13,02,32,0.00
2022,08,13,02,33,0.00
2022,08,13,02,34,0.00
2022,08,13,02,35,0.00
2022,08,13,02,36,0.00
2022,08,13,02,37,0.00
2022,08,13,02,38,0.00
2022,08,13,02,39,0.00
2022,08,13,02,40,0.00
2022,08,13,02,41,0.00
2022,08,13,02,42,0.00
2022,08,13,02,43,0.00
2022,08,13,02,44,0.00
2022,08,13,02,45,0.00
2022,08,13,02,46,0.00
2022,08,13,02,47,0.00
2022,08,13,02,48,0.00
2022,08,13,02,49,0.00
2022,08,13,02,50,0.00
2022,08,13,02,51,0.00
2022,08,13,02,52,0.00
2022,08,13,02,53,0.00
2022,08,13,02,54,0.00
2022,08,13,02,55,0.00
2022,08,13,02,56,0.00
2022,08,13,02,57,0.00
2022,08,13,02,58,0.00
2022,08,13,02,59,0.00
2022,08,13,03,00,0.00
2022,08,13,03,01,0.00
2022,08,13,03,02,0.00
2022,08,13,03,03,0.00
2022,08,13,03,04,0.00
2022,08,13,03,05,0.00
2022,08,13,03,06,0.00
2022,08,13,03,07,0.00
2022,08,13,03,08,0.00
2022,08,13,03,09,0.00
2022,08,13,03,10,0.00
2022,08,13,03,11,0.00
2022,08,13,03,12,0.00
2022,08,13,03,13,0.00
2022,08,13,03,14,0.00
2022,08,13,03,15,0.00
2022,08,13,03,16,0.00
2022,08,13,03,17,0.00
2022,08,13,03,18,0.00
2022,08,13,03,19,0.00
2022,08,13,03,20,0.00
2022,08,13,03,21,0.00
2022,08,13,03,22,0.00
2022,08,13,03,23,0.00
2022,08,13,03,24,0.00
2022,08,13,03,25,0.00
2022,08,13,03,26,0.00
2022,08,13,03,27,0.00
2022,08,13,03,28,0.00
2022,08,13,03,29,0.00
2022,08,13,03,30,0.00
2022,08,13,03,31,0.00
2022,08,13,03,32,0.00
2022,08,13,03,33,0.00
2022,08,13,03,34,0.00
2022,08,13,03,35,0.00
2022,08,13,03,36,0.00
2022,08,13,03,37,0.00
2022,08,13,03,38,0.00
2022,08,13,03,39,0.00
2022,08,13,03,40,0.00
2022,08,13,03,41,0.00
2022,08,13,03,42,0.00
2022,08,13,03,43,0.00
2022,08,13,03,44,0.00
2022,08,13,03,45,0.00
2022,08,13,03,46,0.00
2022,08,13,03,47,0.00
2022,08,13,03,48,0.00
2022,08,13,03,49,0.00
2022,08,13,03,50,0.00
2022,08,13,03,51,0.00
2022,08,13,03,52,0.00
2022,08,13,03,53,0.00
2022,08,13,03,54,0.00
2022,08,13,03,55,0.00
2022,08,13,03,56,0.00
2022,08,13,03,57,0.00
2022,08,13,03,58,0.00
2022,08,13,03,59,0.00
2022,08,13,04,00,0.00
2022,08,13,04,01,0.00
2022,08,13,04,02,0.00
2022,08,13,04,03,0.00
2022,08,13,04,04,0.00
2022,08,13,04,05,0.00
2022,08,13,04,06,0.00
2022,08,13,04,07,0.00
2022,08,13,04,08,0.00
2022,08,13,04,09,0.00
2022,08,13,04,10,0.00
2022,08,13,04,11,0.00
2022,08,13,04,12,0.00
2022,08,13,04,13,0.00
2022,08,13,04,14,0.00
2022,08,13,04,15,0.00
2022,08,13,04,16,0.00
2022,08,13,04,17,0.00
2022,08,13,04,18,0.00
2022,08,13,04,19,0.00
2022,08,13,04,20,0.00
2022,08,13,04,21,0.00
2022,08,13,04,22,0.00
2022,08,13,04,23,0.00
2022,08,13,04,24,0.00
2022,08,13,04,25,0.00
2022,08,13,04,26,0.00
2022,08,13,04,27,0.00
2022,08,13,04,28,0.00
2022,08,13,04,29,0.00
2022,08,13,04,30,0.00
2022,08,13,04,31,0.00
2022,08,13,04,32,0.00
2022,08,13,04,33,0.00
2022,08,13,04,34,0.00
2022,08,13,04,35,0.00
2022,08,13,04,36,0.00
2022,08,13,04,37,0.00
2022,08,13,04,38,0.00
2022,08,13,04,39,0.00
2022,08,13,04,40,0.00
2022,08,13,04,41,0.00
2022,08,13,04,42,0.00
2022,08,13,04,43,0.00
2022,08,13,04,44,0.00
2022,08,13,04,45,0.00
2022,08,13,04,46,0.00
2022,08,13,04,47,0.00
2022,08,13,04,48,0.00
2022,08,13,04,49,0.00
2022,08,13,04,50,0.00
2022,08,13,04,51,0.00
2022,08,13,04,52,0.00
2022,08,13,04,53,0.00
2022,08,13,04,54,0.00
2022,08,13,04,55,0.00
2022,08,13,04,56,0.00
2022,08,13,04,57,0.00
2022,08,13,04,58,0.00
2022,08,13,04,59,0.00
2022,08,13,05,00,0.00
2022,08,13,05,01,0.00
2022,08,13,05,02,0.00
2022,08,13,05,03,0.00
2022,08,13,05,04,0.00
2022,08,13,05,05,0.00
2022,08,13,05,06,0.00
2022,08,13,05,07,0.00
2022,08,13,05,08,0.00
2022,08,13,05,09,0.00
2022,08,13,05,10,0.00
2022,08,13,05,11,0.00
2022,08,13,05,12,0.00
2022,08,13,05,13,0.00
2022,08,13,05,14,0.00
2022,08,13,05,15,0.00
2022,08,13,05,16,0.00
2022,08,13,05,17,0.00
2022,08,13,05,18,0.00
2022,08,13,05,19,0.00
2022,08,13,05,20,0.00
2022,08,13,05,21,0.00
2022,08,13,05,22,0.00
2022,08,13,05,23,0.00
2022,08,13,05,24,0.00
2022,08,13,05,25,0.00
2022,08,13,05,26,0.00
2022,08,13,05,27,0.00
2022,08,13,05,28,0.00
2022,08,13,05,29,0.00
2022,08,13,05,30,0.00
2022,08,13,05,31,0.00
2022,08,13,05,32,0.00
2022,08,13,05,33,0.00
2022,08,13,05,34,0.00
2022,08,13,05,35,0.00
2022,08,13,05,36,0.00
2022,08,13,05,37,0.00
2022,08,13,05,38,0.00
2022,08,13,05,39,0.00
2022,08,13,05,40,0.00
2022,08,13,05,41,0.00
2022,08,13,05,42,0.00
2022,08,13,05,43,0.00
2022,08,13,05,44,0.00
2022,08,13,05,45,0.00
2022,08,13,05,46,0.00
2022,08,13,05,47,0.00
2022,08,13,05,48,0.00
2022,08,13,05,49,0.00
2022,08,13,05,50,0.00
2022,08,13,05,51,0.00
2022,08,13,05,52,0.00
2022,08,13,05,53,0.00
2022,08,13,05,54,0.00
2022,08,13,05,55,0.00
2022,08,13,05,56,0.00
2022,08,13,05,57,0.00
2022,08,13,05,58,0.00
2022,08,13,05,59,0.00
2022,08,13,06,00,0.00
2022,08,13,06,01,0.00
2022,08,13,06,02,0.00
2022,08,13,06,03,0.00
2022,08,13,06,04,0.00
2022,08,13,06,05,0.00
2022,08,13,06,06,0.00
2022,08,13,06,07,0.00
2022,08,13,06,08,0.00
2022,08,13,06,09,0.00
2022,08,13,06,10,4.20
2022,08,13,06,11,5.00
2022,08,13,06,12,5.40
2022,08,13,06,13,7.60
2022,08,13,06,14,9.00
2022,08,13,06,15,10.10
2022,08,13,06,16,11.00
2022,08,13,06,17,11.70
2022,08,13,06,18,12.00
2022,08,13,06,19,12.10
2022,08,13,06,20,14.00
2022,08,13,06,21,14.50
2022,08,13,06,22,16.70
2022,08,13,06,23,18.00
2022,08,13,06,24,16.90
2022,08,13,06,25,16.00
2022,08,13,06,26,16.00
2022,08,13,06,27,16.00
2022,08,13,06,28,16.00
2022,08,13,06,29,16.00
2022,08,13,06,30,16.60
2022,08,13,06,31,18.00
2022,08,13,06,32,18.00
2022,08,13,06,33,18.60
2022,08,13,06,34,20.40
2022,08,13,06,35,21.00
2022,08,13,06,36,21.00
2022,08,13,06,37,21.00
2022,08,13,06,38,21.00
2022,08,13,06,39,21.00
2022,08,13,06,40,21.00
2022,08,13,06,41,21.00
2022,08,13,06,42,22.30
2022,08,13,06,43,23.00
2022,08,13,06,44,24.70
2022,08,13,06,45,25.00
2022,08,13,06,46,25.00
2022,08,13,06,47,25.00
2022,08,13,06,48,25.00
2022,08,13,06,49,25.00
2022,08,13,06,50,25.00
2022,08,13,06,51,25.00
2022,08,13,06,52,25.80
2022,08,13,06,53,26.00
2022,08,13,06,54,26.00
2022,08,13,06,55,26.00
2022,08,13,06,56,26.00
2022,08,13,06,57,26.80
2022,08,13,06,58,28.00
2022,08,13,06,59,29.20
2022,08,13,07,00,30.00
2022,08,13,07,01,30.00
2022,08,13,07,02,31.80
2022,08,13,07,03,32.20
2022,08,13,07,04,33.00
2022,08,13,07,05,33.00
2022,08,13,07,06,33.80
2022,08,13,07,07,36.10
2022,08,13,07,08,37.00
2022,08,13,07,09,38.50
2022,08,13,07,10,39.80
2022,08,13,07,11,41.90
2022,08,13,07,12,42.30
2022,08,13,07,13,44.00
2022,08,13,07,14,44.80
2022,08,13,07,15,46.00
2022,08,13,07,16,46.00
2022,08,13,07,17,46.00
2022,08,13,07,18,44.30
2022,08,13,07,19,44.00
2022,08,13,07,20,44.20
2022,08,13,07,21,46.00
2022,08,13,07,22,46.30
2022,08,13,07,23,47.80
2022,08,13,07,24,49.00
2022,08,13,07,25,50.30
2022,08,13,07,26,51.00
2022,08,13,07,27,52.70
2022,08,13,07,28,54.20
2022,08,13,07,29,58.40
2022,08,13,07,30,60.80
2022,08,13,07,31,64.50
2022,08,13,07,32,68.00
2022,08,13,07,33,69.60
2022,08,13,07,34,70.00
2022,08,13,07,35,70.00
2022,08,13,07,36,70.00
2022,08,13,07,37,69.10
2022,08,13,07,38,69.20
2022,08,13,07,39,70.00
2022,08,13,07,40,70.00
2022,08,13,07,41,71.00
2022,08,13,07,42,72.00
2022,08,13,07,43,72.00
2022,08,13,07,44,73.70
2022,08,13,07,45,75.90
2022,08,13,07,46,79.40
2022,08,13,07,47,83.80
2022,08,13,07,48,86.60
2022,08,13,07,49,89.30
2022,08,13,07,50,92.10
2022,08,13,07,51,94.40
2022,08,13,07,52,96.50
2022,08,13,07,53,97.00
2022,08,13,07,54,95.10
2022,08,13,07,55,94.60
2022,08,13,07,56,92.50
2022,08,13,07,57,91.00
2022,08,13,07,58,91.00
2022,08,13,07,59,91.00
2022,08,13,08,00,91.00
2022,08,13,08,01,90.20
2022,08,13,08,02,90.00
2022,08,13,08,03,90.10
2022,08,13,08,04,91.00
2022,08,13,08,05,91.60
2022,08,13,08,06,93.00
2022,08,13,08,07,91.80
2022,08,13,08,08,91.00
2022,08,13,08,09,91.00
2022,08,13,08,10,94.40
2022,08,13,08,11,98.10
2022,08,13,08,12,102.50
2022,08,13,08,13,105.60
2022,08,13,08,14,109.20
2022,08,13,08,15,115.40
2022,08,13,08,16,120.90
2022,08,13,08,17,127.90
2022,08,13,08,18,135.50
2022,08,13,08,19,141.50
2022,08,13,08,20,146.00
2022,08,13,08,21,146.40
2022,08,13,08,22,148.00
2022,08,13,08,23,149.30
2022,08,13,08,24,151.00
2022,08,13,08,25,151.00
2022,08,13,08,26,154.00
2022,08,13,08,27,155.00
2022,08,13,08,28,155.00
2022,08,13,08,29,154.70
2022,08,13,08,30,152.50
2022,08,13,08,31,150.40
2022,08,13,08,32,147.70
2022,08,13,08,33,144.90
2022,08,13,08,34,142.10
2022,08,13,08,35,139.50
2022,08,13,08,36,137.20
2022,08,13,08,37,137.00
2022,08,13,08,38,137.40
2022,08,13,08,39,139.90
2022,08,13,08,40,143.50
2022,08,13,08,41,147.50
2022,08,13,08,42,152.80
2022,08,13,08,43,155.70
2022,08,13,08,44,155.20
2022,08,13,08,45,151.40
2022,08,13,08,46,145.40
2022,08,13,08,47,141.40
2022,08,13,08,48,138.40
2022,08,13,08,49,136.20
2022,08,13,08,50,133.40
2022,08,13,08,51,129.40
2022,08,13,08,52,127.20
2022,08,13,08,53,125.20
2022,08,13,08,54,123.10
2022,08,13,08,55,123.00
2022,08,13,08,56,123.00
2022,08,13,08,57,123.00
2022,08,13,08,58,123.00
2022,08,13,08,59,123.00
2022,08,13,09,00,123.00
2022,08,13,09,01,123.00
2022,08,13,09,02,123.00
2022,08,13,09,03,121.00
2022,08,13,09,04,121.00
2022,08,13,09,05,121.00
2022,08,13,09,06,121.00
2022,08,13,09,07,122.00
2022,08,13,09,08,124.30
2022,08,13,09,09,125.00
2022,08,13,09,10,126.60
2022,08,13,09,11,128.00
2022,08,13,09,12,130.30
2022,08,13,09,13,132.50
2022,08,13,09,14,134.40
2022,08,13,09,15,136.70
2022,08,13,09,16,141.80
2022,08,13,09,17,147.20
2022,08,13,09,18,153.40
2022,08,13,09,19,160.90
2022,08,13,09,20,171.40
2022,08,13,09,21,180.80
2022,08,13,09,22,190.10
2022,08,13,09,23,198.60
2022,08,13,09,24,206.60
2022,08,13,09,25,213.10
2022,08,13,09,26,219.50
2022,08,13,09,27,226.10
2022,08,13,09,28,231.50
2022,08,13,09,29,236.80
2022,08,13,09,30,242.90
2022,08,13,09,31,252.20
2022,08,13,09,32,259.80
2022,08,13,09,33,262.90
2022,08,13,09,34,260.60
2022,08,13,09,35,260.00
2022,08,13,09,36,261.70
2022,08,13,09,37,260.20
2022,08,13,09,38,262.30
2022,08,13,09,39,265.80
2022,08,13,09,40,273.60
2022,08,13,09,41,282.50
2022,08,13,09,42,293.20
2022,08,13,09,43,300.50
2022,08,13,09,44,303.60
2022,08,13,09,45,307.60
2022,08,13,09,46,313.70
2022,08,13,09,47,333.80
2022,08,13,09,48,317.40
2022,08,13,09,49,318.90
2022,08,13,09,50,325.00
2022,08,13,09,51,337.10
2022,08,13,09,52,343.00
2022,08,13,09,53,343.00
2022,08,13,09,54,367.60
2022,08,13,09,55,444.50
2022,08,13,09,56,413.00
2022,08,13,09,57,420.00
2022,08,13,09,58,426.30
2022,08,13,09,59,412.30
2022,08,13,10,00,423.80
2022,08,13,10,01,429.60
2022,08,13,10,02,419.70
2022,08,13,10,03,436.40
2022,08,13,10,04,475.00
2022,08,13,10,05,513.80
2022,08,13,10,06,496.30
2022,08,13,10,07,479.00
2022,08,13,10,08,440.20
2022,08,13,10,09,439.60
2022,08,13,10,10,439.00
2022,08,13,10,11,439.00
2022,08,13,10,12,410.00
2022,08,13,10,13,410.00
2022,08,13,10,14,405.90
2022,08,13,10,15,400.10
2022,08,13,10,16,410.80
2022,08,13,10,17,407.90
2022,08,13,10,18,391.20
2022,08,13,10,19,367.50
2022,08,13,10,20,357.10
2022,08,13,10,21,351.10
2022,08,13,10,22,347.10
2022,08,13,10,23,348.20
2022,08,13,10,24,344.10
2022,08,13,10,25,341.80
2022,08,13,10,26,341.00
2022,08,13,10,27,344.20
2022,08,13,10,28,345.00
2022,08,13,10,29,344.30
2022,08,13,10,30,352.20
2022,08,13,10,31,339.40
2022,08,13,10,32,336.00
2022,08,13,10,33,337.60
2022,08,13,10,34,343.10
2022,08,13,10,35,350.90
2022,08,13,10,36,360.60
2022,08,13,10,37,360.20
2022,08,13,10,38,362.60
2022,08,13,10,39,366.80
2022,08,13,10,40,371.60
2022,08,13,10,41,379.10
2022,08,13,10,42,387.10
2022,08,13,10,43,384.10
2022,08,13,10,44,398.20
2022,08,13,10,45,391.50
2022,08,13,10,46,374.50
2022,08,13,10,47,370.70
2022,08,13,10,48,369.50
2022,08,13,10,49,373.00
2022,08,13,10,50,379.30
2022,08,13,10,51,388.20
2022,08,13,10,52,398.30
2022,08,13,10,53,392.30
2022,08,13,10,54,388.60
2022,08,13,10,55,396.10
2022,08,13,10,56,398.90
2022,08,13,10,57,410.20
2022,08,13,10,58,425.00
2022,08,13,10,59,439.20
2022,08,13,11,00,438.20
2022,08,13,11,01,459.10
2022,08,13,11,02,470.50
2022,08,13,11,03,527.80
2022,08,13,11,04,511.60
2022,08,13,11,05,408.50
2022,08,13,11,06,437.60
2022,08,13,11,07,485.00
2022,08,13,11,08,485.00
2022,08,13,11,09,485.00
2022,08,13,11,10,485.00
2022,08,13,11,11,485.00
2022,08,13,11,12,510.70
2022,08,13,11,13,502.00
2022,08,13,11,14,547.00
2022,08,13,11,15,727.60
2022,08,13,11,16,976.00
2022,08,13,11,17,667.60
2022,08,13,11,18,466.40
2022,08,13,11,19,446.80
2022,08,13,11,20,434.20
2022,08,13,11,21,428.70
2022,08,13,11,22,424.80
2022,08,13,11,23,416.20
2022,08,13,11,24,411.70
2022,08,13,11,25,410.00
2022,08,13,11,26,410.60
2022,08,13,11,27,410.30
2022,08,13,11,28,406.60
2022,08,13,11,29,395.60
2022,08,13,11,30,389.70
2022,08,13,11,31,378.00
2022,08,13,11,32,368.10
2022,08,13,11,33,357.40
2022,08,13,11,34,342.80
2022,08,13,11,35,335.30
2022,08,13,11,36,338.00
2022,08,13,11,37,345.60
2022,08,13,11,38,345.50
2022,08,13,11,39,342.20
2022,08,13,11,40,337.20
2022,08,13,11,41,331.90
2022,08,13,11,42,325.70
2022,08,13,11,43,325.50
2022,08,13,11,44,320.20
2022,08,13,11,45,316.30
2022,08,13,11,46,316.60
2022,08,13,11,47,322.00
2022,08,13,11,48,323.50
2022,08,13,11,49,327.70
2022,08,13,11,50,328.00
2022,08,13,11,51,330.00
2022,08,13,11,52,340.90
2022,08,13,11,53,358.60
2022,08,13,11,54,379.00
2022,08,13,11,55,381.00
2022,08,13,11,56,395.80
2022,08,13,11,57,458.90
2022,08,13,11,58,460.80
2022,08,13,11,59,444.60
2022,08,13,12,00,430.20
2022,08,13,12,01,424.30
2022,08,13,12,02,430.70
2022,08,13,12,03,440.10
2022,08,13,12,04,432.40
2022,08,13,12,05,437.20
2022,08,13,12,06,443.80
2022,08,13,12,07,452.30
2022,08,13,12,08,477.40
2022,08,13,12,09,465.30
2022,08,13,12,10,441.70
2022,08,13,12,11,430.50
2022,08,13,12,12,417.40
2022,08,13,12,13,405.00
2022,08,13,12,14,401.00
2022,08,13,12,15,401.80
2022,08,13,12,16,404.40
2022,08,13,12,17,410.10
2022,08,13,12,18,423.90
2022,08,13,12,19,440.20
2022,08,13,12,20,457.30
2022,08,13,12,21,464.60
2022,08,13,12,22,466.10
2022,08,13,12,23,458.40
2022,08,13,12,24,456.20
2022,08,13,12,25,453.40
2022,08,13,12,26,458.30
2022,08,13,12,27,504.70
2022,08,13,12,28,516.00
2022,08,13,12,29,557.80
2022,08,13,12,30,511.40
2022,08,13,12,31,504.30
2022,08,13,12,32,488.40
2022,08,13,12,33,471.70
2022,08,13,12,34,453.60
2022,08,13,12,35,438.20
2022,08,13,12,36,431.60
2022,08,13,12,37,429.20
2022,08,13,12,38,431.10
2022,08,13,12,39,431.80
2022,08,13,12,40,429.10
2022,08,13,12,41,423.80
2022,08,13,12,42,419.50
2022,08,13,12,43,414.40
2022,08,13,12,44,410.80
2022,08,13,12,45,406.60
2022,08,13,12,46,403.60
2022,08,13,12,47,410.00
2022,08,13,12,48,411.20
2022,08,13,12,49,417.80
2022,08,13,12,50,427.60
2022,08,13,12,51,439.50
2022,08,13,12,52,468.10
2022,08,13,12,53,481.20
2022,08,13,12,54,492.10
2022,08,13,12,55,478.80
2022,08,13,12,56,483.30
2022,08,13,12,57,492.20
2022,08,13,12,58,460.00
2022,08,13,12,59,450.40
2022,08,13,13,00,435.80
2022,08,13,13,01,421.40
2022,08,13,13,02,420.80
2022,08,13,13,03,417.50
2022,08,13,13,04,432.10
2022,08,13,13,05,459.70
2022,08,13,13,06,496.00
2022,08,13,13,07,496.00
2022,08,13,13,08,496.00
2022,08,13,13,09,540.20
2022,08,13,13,10,566.00
2022,08,13,13,11,893.20
2022,08,13,13,12,951.00
2022,08,13,13,13,1001.80
2022,08,13,13,14,1273.00
2022,08,13,13,15,1273.00
2022,08,13,13,16,1273.00
2022,08,13,13,17,916.40
2022,08,13,13,18,657.00
2022,08,13,13,19,657.00
2022,08,13,13,20,657.00
2022,08,13,13,21,657.00
2022,08,13,13,22,606.40
2022,08,13,13,23,404.00
2022,08,13,13,24,404.00
2022,08,13,13,25,404.00
2022,08,13,13,26,404.00
2022,08,13,13,27,670.00
2022,08,13,13,28,806.30
2022,08,13,13,29,814.00
2022,08,13,13,30,1011.00
2022,08,13,13,31,991.70
2022,08,13,13,32,1021.60
2022,08,13,13,33,1053.50
2022,08,13,13,34,1083.00
2022,08,13,13,35,1083.00
2022,08,13,13,36,706.40
2022,08,13,13,37,532.00
2022,08,13,13,38,567.30
2022,08,13,13,39,613.60
2022,08,13,13,40,788.00
2022,08,13,13,41,788.00
2022,08,13,13,42,788.00
2022,08,13,13,43,788.00
2022,08,13,13,44,928.30
2022,08,13,13,45,990.60
2022,08,13,13,46,927.90
2022,08,13,13,47,953.00
2022,08,13,13,48,942.30
2022,08,13,13,49,920.90
2022,08,13,13,50,962.00
2022,08,13,13,51,962.00
2022,08,13,13,52,962.00
2022,08,13,13,53,745.40
2022,08,13,13,54,708.80
2022,08,13,13,55,705.70
2022,08,13,13,56,657.80
2022,08,13,13,57,404.40
2022,08,13,13,58,466.40
2022,08,13,13,59,473.50
2022,08,13,14,00,398.40
2022,08,13,14,01,369.20
2022,08,13,14,02,364.60
2022,08,13,14,03,374.80
2022,08,13,14,04,376.00
2022,08,13,14,05,376.00
2022,08,13,14,06,376.00
2022,08,13,14,07,392.40
2022,08,13,14,08,434.50
2022,08,13,14,09,454.00
2022,08,13,14,10,545.00
2022,08,13,14,11,584.00
2022,08,13,14,12,584.00
2022,08,13,14,13,584.00
2022,08,13,14,14,584.00
2022,08,13,14,15,563.70
2022,08,13,14,16,529.00
2022,08,13,14,17,463.00
2022,08,13,14,18,408.80
2022,08,13,14,19,403.80
2022,08,13,14,20,397.60
2022,08,13,14,21,396.10
2022,08,13,14,22,399.10
2022,08,13,14,23,428.30
2022,08,13,14,24,504.60
2022,08,13,14,25,555.00
2022,08,13,14,26,555.00
2022,08,13,14,27,555.00
2022,08,13,14,28,555.00
2022,08,13,14,29,555.00
2022,08,13,14,30,547.00
2022,08,13,14,31,493.00
2022,08,13,14,32,547.00
2022,08,13,14,33,736.50
2022,08,13,14,34,1040.00
2022,08,13,14,35,1083.00
2022,08,13,14,36,669.30
2022,08,13,14,37,492.00
2022,08,13,14,38,486.80
2022,08,13,14,39,381.20
2022,08,13,14,40,344.50
2022,08,13,14,41,343.00
2022,08,13,14,42,343.00
2022,08,13,14,43,343.00
2022,08,13,14,44,343.00
2022,08,13,14,45,343.00
2022,08,13,14,46,343.00
2022,08,13,14,47,343.00
2022,08,13,14,48,343.00
2022,08,13,14,49,558.40
2022,08,13,14,50,1022.20
2022,08,13,14,51,1018.00
2022,08,13,14,52,1018.00
2022,08,13,14,53,1018.00
2022,08,13,14,54,1018.00
2022,08,13,14,55,486.20
2022,08,13,14,56,366.00
2022,08,13,14,57,513.40
2022,08,13,14,58,926.00
2022,08,13,14,59,926.00
2022,08,13,15,00,926.00
2022,08,13,15,01,921.20
2022,08,13,15,02,919.00
2022,08,13,15,03,693.80
2022,08,13,15,04,654.00
2022,08,13,15,05,654.00
2022,08,13,15,06,654.00
2022,08,13,15,07,748.80
2022,08,13,15,08,943.60
2022,08,13,15,09,991.00
2022,08,13,15,10,623.50
2022,08,13,15,11,398.90
2022,08,13,15,12,381.00
2022,08,13,15,13,381.00
2022,08,13,15,14,480.60
2022,08,13,15,15,876.90
2022,08,13,15,16,879.20
2022,08,13,15,17,889.00
2022,08,13,15,18,647.10
2022,08,13,15,19,506.00
2022,08,13,15,20,506.00
2022,08,13,15,21,863.60
2022,08,13,15,22,874.00
2022,08,13,15,23,874.00
2022,08,13,15,24,874.00
2022,08,13,15,25,874.00
2022,08,13,15,26,874.00
2022,08,13,15,27,593.80
2022,08,13,15,28,459.80
2022,08,13,15,29,473.80
2022,08,13,15,30,510.50
2022,08,13,15,31,830.00
2022,08,13,15,32,726.50
2022,08,13,15,33,485.00
2022,08,13,15,34,485.00
2022,08,13,15,35,485.00
2022,08,13,15,36,485.00
2022,08,13,15,37,485.00
2022,08,13,15,38,485.00
2022,08,13,15,39,485.00
2022,08,13,15,40,446.00
2022,08,13,15,41,344.50
2022,08,13,15,42,371.00
2022,08,13,15,43,501.30
2022,08,13,15,44,596.00
2022,08,13,15,45,416.80
2022,08,13,15,46,370.70
2022,08,13,15,47,380.80
2022,08,13,15,48,401.80
2022,08,13,15,49,425.00
2022,08,13,15,50,425.00
2022,08,13,15,51,435.50
2022,08,13,15,52,412.40
2022,08,13,15,53,382.50
2022,08,13,15,54,380.00
2022,08,13,15,55,386.50
2022,08,13,15,56,399.60
2022,08,13,15,57,443.00
2022,08,13,15,58,450.50
2022,08,13,15,59,468.00
2022,08,13,16,00,524.10
2022,08,13,16,01,523.90
2022,08,13,16,02,490.00
2022,08,13,16,03,515.00
2022,08,13,16,04,520.00
2022,08,13,16,05,520.00
2022,08,13,16,06,566.20
2022,08,13,16,07,716.10
2022,08,13,16,08,735.00
2022,08,13,16,09,782.30
2022,08,13,16,10,757.40
2022,08,13,16,11,709.20
2022,08,13,16,12,743.80
2022,08,13,16,13,735.50
2022,08,13,16,14,739.60
2022,08,13,16,15,741.90
2022,08,13,16,16,765.70
2022,08,13,16,17,750.00
2022,08,13,16,18,702.60
2022,08,13,16,19,696.00
2022,08,13,16,20,458.40
2022,08,13,16,21,447.50
2022,08,13,16,22,494.70
2022,08,13,16,23,421.70
2022,08,13,16,24,417.20
2022,08,13,16,25,425.00
2022,08,13,16,26,359.70
2022,08,13,16,27,332.90
2022,08,13,16,28,376.10
2022,08,13,16,29,383.00
2022,08,13,16,30,761.80
2022,08,13,16,31,830.00
2022,08,13,16,32,830.00
2022,08,13,16,33,784.80
2022,08,13,16,34,703.70
2022,08,13,16,35,715.40
2022,08,13,16,36,717.50
2022,08,13,16,37,703.80
2022,08,13,16,38,685.00
2022,08,13,16,39,669.10
2022,08,13,16,40,661.40
2022,08,13,16,41,654.00
2022,08,13,16,42,547.80
2022,08,13,16,43,418.00
2022,08,13,16,44,559.00
2022,08,13,16,45,633.40
2022,08,13,16,46,622.90
2022,08,13,16,47,609.00
2022,08,13,16,48,602.70
2022,08,13,16,49,602.10
2022,08,13,16,50,599.40
2022,08,13,16,51,557.50
2022,08,13,16,52,537.00
2022,08,13,16,53,502.60
2022,08,13,16,54,526.50
2022,08,13,16,55,536.50
2022,08,13,16,56,498.50
2022,08,13,16,57,552.60
2022,08,13,16,58,534.70
2022,08,13,16,59,495.60
2022,08,13,17,00,449.80
2022,08,13,17,01,377.10
2022,08,13,17,02,326.10
2022,08,13,17,03,321.70
2022,08,13,17,04,310.80
2022,08,13,17,05,385.20
2022,08,13,17,06,300.00
2022,08,13,17,07,298.50
2022,08,13,17,08,310.90
2022,08,13,17,09,326.10
2022,08,13,17,10,344.60
2022,08,13,17,11,346.70